{"data":{"norad_id":65254,"epoch":"2026-09-20T14:45:23.226624Z","epoch_age_seconds":107532,"freshness":"FRESH","line1":"1 65254U 25179V   26263.61485216  .00016846  00000+0  52286-3 0  9998","line2":"2 65254  97.2848 302.9780 0000771  99.0134 261.1196 15.33451639 61320","mean_motion":15.33451639,"eccentricity":7.71e-5,"inclination_deg":97.2848,"raan_deg":302.978,"arg_perigee_deg":99.0134,"mean_anomaly_deg":261.1196,"bstar":0.00052286,"rev_number":6132,"period_min":93.905798094752,"perigee_km":464.99577533783,"apogee_km":466.05106777483,"semimajor_km":6843.6604215563,"source":"CELESTRAK","updated_at":"2026-09-21T09:00:35.561788Z"}}